FW1964 Weather Reports


time (UTC)temp
C
wind
direction
speed
KPH
gust
KPH
rain 1hr
cm
rain 24hr
cm
rain mn
cm
humidity
%
barometer
mb
20260901140053 15 163 0.0 3.2 0.00 0.00 0.00 57 1016.6
20260901134552 15 41 0.0 3.2 0.00 0.00 0.00 55 1016.3
20260901133051 15 86 0.0 0.0 0.00 0.00 0.00 55 1016.3
20260901131557 15 98 0.0 1.6 0.00 0.00 0.00 55 1016.1
20260901130058 15 180 0.0 0.0 0.00 0.00 0.00 56 1016.1
20260901124548 15 180 0.0 0.0 0.00 0.00 0.00 58 1016.3
20260901123047 15 180 0.0 0.0 0.00 0.00 0.00 59 1016.1
20260901121546 15 180 0.0 0.0 0.00 0.00 0.00 58 1016.0
20260901120043 15 169 0.0 0.0 0.00 0.00 0.00 58 1016.1
20260901114544 15 148 0.0 0.0 0.00 0.00 0.00 58 1016.1
20260901113043 15 190 0.0 4.8 0.00 0.00 0.00 59 1016.1
20260901111541 15 192 0.0 4.8 0.00 0.00 0.00 58 1016.1
20260901110039 15 169 0.0 3.2 0.00 0.00 0.00 56 1016.0
20260901104538 15 169 0.0 3.2 0.00 0.00 0.00 55 1015.8
20260901103037 15 228 0.0 3.2 0.00 0.00 0.00 54 1015.6
20260901101543 15 52 0.0 3.2 0.00 0.00 0.00 54 1015.7
20260901100041 15 160 0.0 1.6 0.00 0.00 0.00 54 1015.7
20260901094536 15 123 0.0 0.0 0.00 0.00 0.00 54 1015.5
20260901093033 16 174 1.6 6.4 0.00 0.00 0.00 55 1015.5
20260901091532 16 179 1.6 6.4 0.00 0.00 0.00 56 1015.6
20260901090040 16 144 0.0 3.2 0.00 0.00 0.00 56 1015.5
20260901084536 16 171 0.0 0.0 0.00 0.00 0.00 56 1015.5
20260901083035 16 107 0.0 0.0 0.00 0.00 0.00 56 1015.7
20260901081527 16 119 0.0 4.8 0.00 0.00 0.00 57 1015.8
20260901080026 16 129 0.0 1.6 0.00 0.00 0.00 58 1015.8
20260901074530 16 188 0.0 8.0 0.00 0.00 0.00 59 1015.7
20260901073034 16 146 0.0 3.2 0.00 0.00 0.00 59 1015.7
20260901071522 16 215 1.6 4.8 0.00 0.00 0.00 60 1015.7
20260901070023 16 193 0.0 3.2 0.00 0.00 0.00 61 1015.8
20260901064532 16 157 0.0 9.7 0.00 0.00 0.00 61 1015.8
20260901063017 16 173 0.0 6.4 0.00 0.00 0.00 61 1015.9
20260901061521 16 184 0.0 9.7 0.00 0.00 0.00 60 1015.8
20260901060016 16 113 0.0 4.8 0.00 0.00 0.00 60 1015.9
20260901054517 16 175 1.6 4.8 0.00 0.00 0.00 60 1015.9
20260901053016 16 154 0.0 4.8 0.00 0.00 0.00 60 1015.9
20260901051515 16 150 0.0 8.0 0.00 0.00 0.00 60 1016.1
20260901050015 16 184 1.6 6.4 0.00 0.00 0.00 59 1016.0
20260901044514 16 181 4.8 11.3 0.00 0.00 0.00 59 1016.0
20260901043014 16 195 3.2 11.3 0.00 0.00 0.00 58 1015.7
20260901041513 16 228 3.2 9.7 0.00 0.00 0.00 58 1015.5
20260901040013 16 203 3.2 12.9 0.00 0.00 0.00 57 1015.3
20260901034520 16 196 3.2 11.3 0.00 0.00 0.00 57 1015.1
20260901033011 16 169 3.2 11.3 0.00 0.00 0.00 57 1015.0
20260901031520 16 219 4.8 14.5 0.00 0.00 0.00 57 1015.0
20260901030017 17 218 1.6 11.3 0.00 0.00 0.00 57 1014.8
20260901024520 17 182 1.6 8.0 0.00 0.00 0.00 57 1014.7
20260901023009 17 173 3.2 14.5 0.00 0.00 0.00 57 1014.7
20260901021508 17 172 6.4 14.5 0.00 0.00 0.00 56 1014.8
20260901020008 17 200 9.7 14.5 0.00 0.00 0.00 55 1014.8
20260901014507 17 144 4.8 17.7 0.00 0.00 0.00 55 1014.8
20260901013008 17 200 6.4 16.1 0.00 0.00 0.00 54 1014.8
20260901011506 18 198 3.2 17.7 0.00 0.00 0.00 55 1014.7
20260901010009 18 166 8.0 17.7 0.00 0.00 0.00 54 1014.8
20260901004506 18 256 9.7 19.3 0.00 0.00 0.00 53 1014.8
20260901003003 18 225 8.0 20.9 0.00 0.00 0.00 52 1014.8
20260901001503 19 234 9.7 24.1 0.00 0.00 0.00 51 1014.5
20260901000002 20 235 8.0 20.9 0.00 0.00 0.00 49 1014.5
20260831234605 20 216 8.0 25.7 0.00 0.00 0.00 47 1014.8
20260831233058 20 187 4.8 22.5 0.00 0.00 0.00 49 1014.7
20260831231559 20 234 11.3 24.1 0.00 0.00 0.00 48 1014.7
20260831230134 20 283 9.7 19.3 0.00 0.00 0.00 47 1014.6
20260831224554 21 215 8.0 14.5 0.00 0.00 0.00 46 1014.7
20260831223054 21 254 1.6 14.5 0.00 0.00 0.00 46 1014.9
20260831221615 20 188 6.4 17.7 0.00 0.00 0.00 47 1014.9
20260831220051 20 268 6.4 20.9 0.00 0.00 0.00 47 1015.1
20260831214550 20 215 1.6 17.7 0.00 0.00 0.00 49 1015.3
20260831213054 20 213 11.3 25.7 0.00 0.00 0.00 49 1015.4
20260831211601 20 236 11.3 20.9 0.00 0.00 0.00 48 1015.5
20260831210047 20 201 9.7 22.5 0.00 0.00 0.00 47 1015.5
20260831204546 21 202 11.3 25.7 0.00 0.00 0.00 46 1015.4
20260831203046 20 215 8.0 24.1 0.00 0.00 0.00 47 1015.4
20260831201543 20 222 9.7 17.7 0.00 0.00 0.00 47 1015.4
20260831200039 20 159 0.0 9.7 0.00 0.00 0.00 49 1015.5
20260831194610 19 210 6.4 14.5 0.00 0.00 0.00 50 1015.8
20260831193034 18 205 3.2 17.7 0.00 0.00 0.00 51 1016.0
20260831191531 18 178 6.4 12.9 0.00 0.00 0.00 53 1016.2
20260831190027 17 263 8.0 16.1 0.00 0.00 0.00 54 1016.3
20260831184540 17 242 4.8 12.9 0.00 0.00 0.00 54 1016.4
20260831183023 17 236 4.8 11.3 0.00 0.00 0.00 55 1016.5
20260831181527 16 195 3.2 12.9 0.00 0.00 0.00 55 1016.5
20260831180023 16 234 4.8 11.3 0.00 0.00 0.00 56 1016.5
20260831174520 16 244 8.0 14.5 0.00 0.00 0.00 55 1016.5
20260831173018 16 194 3.2 8.0 0.00 0.00 0.00 55 1016.4
20260831171524 16 201 1.6 4.8 0.00 0.00 0.00 56 1016.3
20260831170027 16 150 1.6 4.8 0.00 0.00 0.00 56 1016.2
20260831164510 15 179 0.0 4.8 0.00 0.00 0.00 56 1016.0
20260831163009 15 92 0.0 4.8 0.00 0.00 0.00 56 1016.0
20260831161508 15 111 1.6 4.8 0.00 0.00 0.00 56 1016.1
20260831160010 15 146 0.0 3.2 0.00 0.00 0.00 56 1016.0
20260831154504 15 131 0.0 3.2 0.00 0.00 0.00 56 1016.0
20260831153004 15 101 0.0 1.6 0.00 0.00 0.00 56 1016.0
20260831151601 14 82 0.0 3.2 0.00 0.00 0.00 56 1015.9
20260831151503 14 63 0.0 0.0 0.00 0.00 0.00 56 1015.9
20260831150059 14 48 0.0 4.8 0.00 0.00 0.00 56 1015.6
20260831144558 13 78 0.0 4.8 0.00 0.00 0.00 57 1015.5
20260831143056 13 101 0.0 4.8 0.00 0.00 0.00 57 1015.4
20260831141558 13 74 0.0 3.2 0.00 0.00 0.00 58 1015.3